Find Gorizont

NORAD ID: 13092 Int'l Des: 1982-020 Owner: MSVYAZ Country: SU operational
HEOCIRCULAR

Live Position

Loading 3D Globe...

About Gorizont

Description loading...

Upcoming Passes

Passes for default location (London). Set your location on the main map for personalized predictions.

Altitude History

Loading altitude history...

Two-Line Element Set

1 13092U 82020A 26104.50267873 -.00000119 00000-0 00000-0 0 9990
2 13092 8.4886 301.6373 0032489 257.3034 120.4822 0.98532159120974
Epoch: Apr 14, 2026 • Age: 10 hours

Current Status

Altitude 36291.8 km
Velocity 3.06 km/s
Sub-Earth Point 2.52°N, 66.96°W
Launch Date Mar 15, 1982
Age 44 years
Type other

Technical Details

Classification Payload
Mass 2120.00 kg
Dry Mass 2000.00 kg
Total Mass 2120.00 kg
Length 5.50 m
Diameter 3.30 m
Span 9.50 m
Shape Cyl + 2 Pan
Manufacturer NPOPM
Bus Type Gorizont
Phase Status In Orbit
Owner/State MSVYAZ/SU

Most Searched